Hourly Data Report for September 05, 2017

All times are specified in Local Standard Time (LST). Add 1 hour to adjust for Daylight Saving Time where and when it is observed.

KOUCHIBOUGUAC CS
NEW BRUNSWICK

46°47'00.000" N
65°01'00.000" W
21.00 m
8102328
71670
AKC

Download Data

Hourly Data (September 2017)
Hourly Data Report for September 5, 2017
Temp Definition
°C
Dew Point Temp Definition
°C
Rel Hum Definition
%
Wind Dir Definition
10's deg

Wind Spd Definition
km/h
Visibility Definition
km
Stn Press Definition
kPa
Hmdx Definition


Wind Chill Definition


Weather Definition


TIME
00:00 16.9 12.3 74 20 12   100.45     LegendNANA
01:00 16.9 12.2 74 20 9   100.43     LegendNANA
02:00 16.2 12.1 77 19 10   100.42     LegendNANA
03:00 15.9 12.1 78 19 10   100.37     LegendNANA
04:00 15.4 12.3 82 20 10   100.38     LegendNANA
05:00 15.3 12.7 84 18 10   100.31     LegendNANA
06:00 15.3 13.0 86 18 8   100.37     LegendNANA
07:00 16.6 13.8 84 19 8   100.37     LegendNANA
08:00 17.7 14.7 83 19 10   100.34     LegendNANA
09:00 19.4 14.4 73 21 14   100.37     LegendNANA
10:00 22.0 15.5 66 20 15   100.33 26   LegendNANA
11:00 23.8 15.6 60 21 15   100.34 28   LegendNANA
12:00 24.9 15.9 57 21 15   100.34 29   LegendNANA
13:00 25.0 16.4 59 20 12   100.37 30   LegendNANA
14:00 25.6 16.4 57 21 13   100.40 30   LegendNANA
15:00 25.4 16.6 58 24 10   100.45 30   LegendNANA
16:00 23.8 16.7 64 19 12   100.50 29   LegendNANA
17:00 22.8 16.7 68 19 14   100.57 28   LegendNANA
18:00 20.8 16.5 76 19 13   100.65 26   LegendNANA
19:00 19.6 16.7 84 18 12   100.68     LegendNANA
20:00 19.0 16.8 87 19 9   100.74     LegendNANA
21:00 18.9 16.9 89 19 10   100.78     LegendNANA
22:00 19.2 16.9 87 20 10   100.82     LegendNANA
23:00 19.5 17.4 88 20 10   100.81     LegendNANA

Notes on Data Quality.

Legend

  • E = Estimated
  • M = Missing
  • NA = Not Available
  • ‡ = Partner data that is not subject to review by the National Climate Archives
Date modified: